Location: Ahstedt
(52.2048°N, 10.1060°E)
Time: 18:29:39
(UTC+00:00)

Cosmos 2082 Rocket - Pass Details

Date: 20 April 2026
Orbit: 831 x 853 km, 71.0° (Epoch: 13 May)

Event Time Altitude Azimuth Distance (km) Brightness Sun altitude
Exits shadow 23:32:25 23° 106° (ESE) 1,757 3.7 -25.9°
Maximum altitude 23:32:40 23° 102° (ESE) 1,754 3.7 -25.9°
Drops below altitude 10° 23:37:00 10° 52° (NE) 2,493 5.2 -25.9°
Sets 23:39:56 0° 39° (NE) 3,434 6.2 -25.8°
